Location: Hepcat Sky Observatory
(29.9800°N, 95.6500°W)
Time: 11:40:45
(UTC-05:00)

Daily predictions for brighter satellites

Satellite Brightness Start Highest point End
(mag) Time Altitude Azimuth Time Altitude Azimuth Time Altitude Azimuth
ATLAS CENTAUR Rocket 4.2 18:56:10 10° W 19:01:55 77° S 19:42:32 10° ESE
Cosmos 1867 4.2 20:38:37 10° NW 20:44:00 60° WSW 20:49:17 10° SSE
FengYun 1-2 T 4.3 20:39:02 10° SSE 20:44:37 80° ENE 20:50:16 10° N
H-2A R/B 3.4 20:42:30 10° SE 20:45:53 35° ENE 20:49:17 10° N
Cosmos 909 Rocket 4.3 20:40:32 10° S 20:46:36 54° ESE 20:53:28 10° NE
Cosmos 1703 Rocket 3.6 20:42:21 10° N 20:46:48 67° E 20:51:14 10° SSE
DELTA 2 R/B(2) 2.8 20:44:51 10° WNW 20:46:50 74° NNE 20:48:24 10° ESE
ERS-1 Rocket 4.5 20:43:25 10° ESE 20:46:59 20° ENE 20:50:34 10° NNE
GPS 2-05 Rocket1 3.9 20:45:08 10° SSW 20:48:25 30° SSE 20:51:39 10° E
OAO 3 Copernicus 4.4 20:45:33 10° WNW 20:50:39 83° SSW 20:55:44 10° ESE
Coronas F rocket 2.6 20:56:36 10° SE 20:58:40 21° E 21:00:46 10° NE
CZ-4 DEB 4.0 20:57:43 10° SE 21:00:21 25° ENE 21:03:02 10° NNE
Abrixas rocket 4.2 20:58:36 10° NNW 21:01:11 20° NNE 21:03:44 10° E
Aureole 3 Rocket 4.4 20:58:51 10° NNW 21:04:35 51° W 21:08:42 10° SSW
GPS 2-14 Rocket1 4.4 21:03:05 10° SW 21:05:44 18° S 21:08:06 11° SE
Cosmos 389 Rocket 3.1 21:02:24 10° NNW 21:05:49 57° W 21:09:14 10° S
Cosmos 2184 Rocket 4.2 21:04:29 10° SSE 21:10:22 49° E 21:16:16 10° NNE
USA 234 4.2 21:06:24 10° ENE 21:11:16 22° ESE 21:16:07 10° S
deb Chang Zheng 4 4.3 21:09:06 10° NE 21:13:05 32° E 21:17:03 10° SSE
Cosmos 2221 Rocket 4.3 21:12:15 10° NNW 21:16:36 55° W 21:20:55 10° S
Cosmos 1733 Rocket 3.4 21:12:36 10° SSE 21:16:48 44° E 21:21:00 10° NNE
COSMOS 2406 4.4 21:12:09 10° N 21:16:58 27° ENE 21:20:20 16° ESE
Cosmos 2056 Rocket 3.4 21:15:21 10° S 21:20:29 65° ESE 21:25:35 10° NNE
Cosmos 1371 Rocket 4.1 21:17:12 10° SSW 21:22:33 83° WNW 21:27:52 10° NNE
CZ-3C R/B 3.8 20:28:29 10° WSW 21:24:21 43° S 21:30:50 18° ESE
USA 186 2.3 21:22:03 10° S 21:24:53 52° W 21:27:56 10° NNW
ATLAS 5 CENTAUR R/B 3.4 21:19:35 10° N 21:24:59 31° NE 21:28:52 17° ESE
Cosmos 2181 Rocket 4.3 21:23:02 10° N 21:29:25 71° W 21:35:44 10° S
Cosmos 1356 Rocket 3.4 21:25:20 10° S 21:29:30 88° W 21:33:46 10° N
Cosmos 2278 Rocket 3.2 21:27:10 18° SE 21:29:32 24° E 21:33:57 10° NE
Cosmos 1844 4.1 21:27:02 10° S 21:32:22 42° ESE 21:37:47 10° NE
Intelsat 3F5 C 4.4 21:32:47 10° SW 21:35:42 38° SSE 21:35:52 38° SSE
Cosmos 2084 4.4 21:37:52 23° E 21:37:52 23° E 21:40:03 10° NE
Cosmos 1825 3.9 21:37:57 18° ENE 21:37:57 18° ENE 21:39:58 10° NE
Cosmos 1943 4.5 21:32:16 10° NW 21:37:26 38° WSW 21:42:33 10° S
CENTAUR R/B 3.3 21:30:55 10° NNW 21:38:50 60° ENE 21:44:20 23° SE
Cosmos 1844 Rocket 2.6 21:34:40 10° S 21:40:17 72° ESE 21:45:55 10° NNE
ATLAS 2A CENTAUR R/B 1.5 21:37:50 10° WSW 21:40:39 27° SSW 21:40:39 27° SSW
Meteosat 1 Rocket2 4.3 21:35:48 10° WSW 21:41:48 76° S 21:50:04 14° E
SL-27 R/B 3.8 21:39:35 10° NNE 21:42:34 24° ENE 21:42:44 24° ENE
Nimbus 7 Rocket 4.4 21:36:40 10° NNE 21:42:34 65° ESE 21:48:30 10° S
OAO 3 Rocket 4.3 21:38:48 10° SSW 21:42:34 25° SSE 21:42:34 25° SSE
H-2A R/B 2.5 21:41:12 29° SE 21:42:57 44° ENE 21:47:03 10° N
Cosmos 2074 Rocket 4.2 21:38:28 10° S 21:44:45 77° W 21:51:02 10° N
COS B Rocket 4.1 21:43:46 10° NNE 21:47:18 30° E 21:47:18 30° E
YAOGAN 6 4.3 21:51:59 19° ENE 21:51:59 19° ENE 21:53:56 10° NNE
Cosmos 1408 3.9 21:52:39 25° ENE 21:52:39 25° ENE 21:54:53 10° NNE
Cosmos 1610 Rocket 4.4 21:47:20 10° S 21:53:27 83° E 21:59:39 10° N
Cosmos 1939 Rocket 2.6 21:56:34 41° SSE 21:57:52 89° E 22:01:45 10° N
Envisat 2.9 21:57:05 32° SSE 21:59:29 75° ENE 22:04:34 10° N
Meteor 1-27 Rocket 4.1 21:54:17 10° N 21:59:32 41° E 22:00:52 35° ESE
Okean 2 Rocket 4.3 22:02:50 26° ENE 22:02:50 26° ENE 22:05:40 10° NNE
Cosmos 1782 2.7 21:59:16 10° N 22:03:17 74° E 22:04:01 56° SSE
Centaur AC-125 4.5 21:31:21 10° WSW 22:04:46 51° S 22:07:45 33° ESE
H-2A R/B 4.1 22:05:40 13° ENE 22:05:45 13° ENE 22:08:16 10° NE
Nadezhda 3 Rocket 4.3 22:00:04 10° N 22:06:14 50° E 22:08:16 37° SE
Sich 1 Rocket 3.7 22:03:58 22° S 22:06:55 80° W 22:11:30 10° N
UNK 4.4 22:01:00 10° NNE 22:07:07 64° ESE 22:10:26 27° S
Atlas Centaur 2 0.9 22:05:29 10° W 22:09:02 83° N 22:09:15 76° ENE
SPOT 5 3.0 22:08:05 43° SE 22:09:40 66° ENE 22:14:57 10° N
Cosmos 1238 Rocket 4.3 22:09:16 10° NNE 22:10:41 21° NE 22:10:41 21° NE
ERBS 3.3 22:09:00 10° NNW 22:11:51 38° NNE 22:11:51 38° NNE
Cosmos 1606 3.0 22:13:05 10° N 22:16:30 55° NE 22:16:30 55° NE
Cosmos 2341 Rocket 3.9 22:14:23 33° SSE 22:17:23 71° E 22:23:38 10° N
Cosmos 1674 Rocket 3.7 22:13:23 10° N 22:17:50 71° W 22:19:00 47° SSW
Terra 4.0 22:21:17 13° NE 22:21:17 13° NE 22:22:36 10° NE
SPOT 1/Viking Rocket 4.0 22:20:10 43° E 22:20:31 44° ENE 22:25:25 10° N
Cosmos 1452 Rocket 3.6 22:19:21 15° SSW 22:23:40 74° WNW 22:28:56 10° NNE
Cosmos 1782 Rocket 3.6 22:24:25 66° ENE 22:24:25 66° ENE 22:28:33 10° NNE
Cosmos 407 Rocket 3.4 22:19:17 10° N 22:24:33 70° ENE 22:25:16 61° ESE
ERS-1 Rocket 4.3 22:22:14 17° SSW 22:25:27 35° W 22:30:03 10° NNW
GPS 2-05 Rocket1 3.7 22:22:59 10° W 22:26:02 51° WNW 22:26:02 51° WNW
Cosmos 1190 Rocket 4.1 22:31:02 10° NNW 22:36:11 69° WSW 22:36:59 58° SSW
OAO 1 Rocket 4.3 22:31:09 10° WSW 22:36:02 70° SSW 22:36:02 70° SSW
Meteor 2-13 Rocket 4.3 22:35:47 58° SSE 22:37:00 75° E 22:43:09 10° N
Abrixas rocket 4.3 22:35:10 10° WNW 22:36:58 25° W 22:36:58 25° W
SL-8 Rocket 3.9 22:41:38 62° ESE 22:42:04 64° E 22:48:15 10° NNE
Delta 168 4.3 22:33:02 10° W 22:42:52 63° S 22:44:04 56° SE
Okean 3 4.2 22:39:41 10° N 22:42:53 49° N 22:42:53 49° N
Cosmos 1975 Rocket 3.9 22:41:55 10° N 22:44:55 43° NNE 22:44:55 43° NNE
MetOp-B 4.4 22:49:02 55° SW 22:49:45 61° WSW 22:55:03 10° NNW
CZ-4B R/B 3.9 22:48:25 10° N 22:53:14 56° WNW 22:53:56 51° WSW
USA 234 3.4 22:48:00 10° NE 22:54:29 73° NW 23:00:58 10° SW
Meteor 1-14 Rocket 4.3 22:55:28 65° NE 22:55:28 65° NE 23:00:28 10° NNE
SL-08 RB Rocket 4.5 22:57:06 48° N 22:57:06 48° N 23:00:28 10° N
FALCON 9 R/B 4.0 22:28:51 10° WNW 23:01:00 57° SW 23:04:14 44° S
ARGOS 3.2 23:01:22 77° NW 23:01:22 77° NW 23:06:24 10° NNW
Cosmos 676 Rocket 4.4 23:01:01 10° NNW 23:05:40 58° WNW 23:05:40 58° WNW
ATLAS 5 CENTAUR R/B 3.3 23:04:00 10° NW 23:09:45 39° WSW 23:10:26 38° SW
Cosmos 1954 Rocket 4.5 23:07:54 10° NNW 23:12:10 57° NW 23:12:10 57° NW
Cosmos 2278 Rocket 3.6 23:08:50 13° SW 23:13:20 35° WNW 23:18:28 10° N
Cosmos 2366 rocket 4.0 23:21:19 75° NNW 23:21:19 75° NNW 23:27:06 10° N
Cosmos 1833 Rocket 4.3 23:19:21 10° N 23:22:38 25° NE 23:22:38 25° NE
CENTAUR R/B 4.5 23:22:43 10° NW 23:29:11 27° WSW 23:31:32 23° SW
Cosmos 2082 Rocket 3.4 23:33:37 10° N 23:37:16 36° NNE 23:37:16 36° NNE
H-2A R/B 3.2 23:46:19 41° NW 23:46:19 41° NW 23:49:55 10° NNW
